Location: Linz
(48.3300°N, 14.3000°E)
Time: 04:18:54
(UTC+02:00)

Vanguard 2 Rocket - Visible Passes

Search period start: 21 July 2018 00:00
Search period end: 31 July 2018 00:00
Orbit: 554 x 3327 km, 32.9° (Epoch: 20 July)

Date Brightness Start Highest point End Pass type
(mag) Time Alt. Az. Time Alt. Az. Time Alt. Az.
21 Jul 8.7 02:54:24 15° SSE 02:55:49 15° SSE 03:00:21 10° ESE visible
22 Jul 8.5 04:04:05 13° SSW 04:08:31 25° SSE 04:16:19 10° ESE visible
23 Jul 8.4 03:07:59 17° S 03:09:25 19° SSE 03:14:45 10° ESE visible
24 Jul 9.0 02:11:56 11° SE 02:11:56 11° SE 02:12:43 10° SE visible
24 Jul 8.5 04:17:44 12° SW 04:22:20 25° S 04:29:57 10° ESE visible
25 Jul 8.2 03:21:43 19° S 03:23:09 20° SSE 03:28:44 10° ESE visible
26 Jul 8.7 02:25:43 13° SE 02:25:43 13° SE 02:27:30 10° SE visible
26 Jul 8.5 04:31:32 10° SW 04:36:15 23° S 04:43:17 10° SE visible
27 Jul 8.2 03:35:36 18° S 03:37:02 20° S 03:42:24 10° SE visible
28 Jul 8.6 02:39:43 14° SE 02:39:43 14° SE 02:41:37 10° SE visible
28 Jul 8.5 04:45:56 10° SW 04:50:15 19° S 04:56:12 10° SE visible
29 Jul 8.2 03:49:43 17° SSW 03:50:59 18° S 03:55:43 10° SE visible
30 Jul 8.7 02:53:58 13° SSE 02:53:58 13° SSE 02:55:18 10° SE visible
